Rexburg, ID

10:35 PM MDT on July 25, 2017 (GMT -0600)
Rexburg-Madison County

Weather History for KRXE - October, 2010

Change the Weather History Date:

Sunday, October 24, 2010

  Actual Average Record
Temperature  
Mean Temperature 45 °F 42 °F  
Max Temperature 51 °F 55 °F 71 °F (2005)
Min Temperature 38 °F 29 °F 0 °F (2013)
Degree Days  
Heating Degree Days 20 23  
Month to date heating degree days 327 454  
Since 1 July heating degree days 622 812  
Cooling Degree Days 0 0  
Month to date cooling degree days 0 0  
Year to date cooling degree days 175 208  
Moisture  
Dew Point 42 °F    
Average Humidity 81    
Maximum Humidity 92    
Minimum Humidity 70    
Precipitation  
Precipitation 0.24 in 0.03 in 0.35 in (1983)
Month to date precipitation 0.52 0.86  
Year to date precipitation 9.77 10.74  
Sea Level Pressure  
Sea Level Pressure 29.59 in    
Wind  
Wind Speed 15 mph (SSW)    
Max Wind Speed 30 mph    
Max Gust Speed 43 mph    
Visibility 10 miles    
Events Rain    
T = Trace of Precipitation, MM = Missing Value Source: NWS Daily Summary

Daily Weather History Graph

Daily Weather History Graph

Search for Another Location

Airport or City:

Trip Planner

Search our weather history database for the weather conditions in past years. The results will help you decide how hot, cold, wet, or windy it might be!

Date:

Astronomy

Oct. 24, 2010 Rise Set
Actual Time 7:53 AM MDT 6:29 PM MDT
Civil Twilight 7:23 AM MDT 6:58 PM MDT
Nautical Twilight 6:49 AM MDT 7:32 PM MDT
Astronomical Twilight 6:16 AM MDT 8:05 PM MDT
Moon 7:07 PM MDT (10/24) 9:44 AM MDT (10/24)
Length of Visible Light 11h 34m
Length of Day
10h 36m
Full, 97% of the Moon is Illuminated
Oct 24
Full
Oct 30
Last Quarter
Nov 5
New
Nov 13
First Quarter
Nov 21
Full

Hourly Weather History & Observations

Time (MDT) Temp. Windchill Dew Point Humidity Pressure Visibility Wind Dir Wind Speed Gust Speed Precip Events Conditions
12:53 AM 44.1 °F 38.6 °F 37.0 °F 76% 29.90 in 10.0 mi SSW 10.4 mph - N/A   Overcast
1:43 AM 42.8 °F 37.0 °F 35.6 °F 76% 29.93 in 10.0 mi South 10.4 mph 17.3 mph N/A   Scattered Clouds
1:53 AM 43.0 °F 37.2 °F 35.1 °F 74% 29.90 in 10.0 mi South 10.4 mph - N/A   Partly Cloudy
2:53 AM 43.0 °F 36.4 °F 35.1 °F 74% 29.87 in 10.0 mi South 12.7 mph - N/A   Scattered Clouds
3:53 AM 45.0 °F 40.1 °F 36.0 °F 71% 29.86 in 10.0 mi South 9.2 mph 19.6 mph N/A   Mostly Cloudy
4:53 AM 43.0 °F 36.8 °F 39.0 °F 86% 29.84 in 10.0 mi South 11.5 mph 20.7 mph 0.01 in Rain Light Rain
5:53 AM 43.0 °F 38.2 °F 39.9 °F 89% 29.81 in 10.0 mi South 8.1 mph - 0.01 in   Mostly Cloudy
6:53 AM 44.1 °F 39.0 °F 39.9 °F 85% 29.79 in 10.0 mi South 9.2 mph - N/A   Overcast
7:49 AM 44.6 °F 39.2 °F 39.2 °F 81% 29.81 in 10.0 mi South 10.4 mph 18.4 mph 0.00 in   Overcast
7:53 AM 45.0 °F 40.1 °F 39.9 °F 82% 29.78 in 10.0 mi South 9.2 mph - 0.00 in   Overcast
8:50 AM 44.6 °F 39.2 °F 41.0 °F 87% 29.79 in 9.0 mi South 10.4 mph - 0.00 in Rain Light Rain
8:53 AM 44.1 °F 38.1 °F 41.0 °F 89% 29.77 in 9.0 mi South 11.5 mph - 0.00 in Rain Light Rain
9:16 AM 44.6 °F 38.4 °F 41.0 °F 87% 29.78 in 8.0 mi South 12.7 mph - 0.01 in Rain Light Rain
9:53 AM 45.0 °F 38.2 °F 43.0 °F 93% 29.74 in 10.0 mi SSW 15.0 mph 24.2 mph 0.01 in   Overcast
10:06 AM 44.6 °F 37.8 °F 42.8 °F 93% 29.76 in 10.0 mi SSW 15.0 mph 24.2 mph 0.01 in   Overcast
10:19 AM 44.6 °F 37.2 °F 42.8 °F 93% 29.76 in 10.0 mi SSW 17.3 mph 26.5 mph 0.01 in Rain Light Rain
10:53 AM 45.0 °F 38.5 °F 43.0 °F 93% 29.72 in 10.0 mi SSW 13.8 mph 25.3 mph 0.02 in Rain Light Rain
11:40 AM 46.4 °F 39.5 °F 42.8 °F 87% 29.71 in 10.0 mi SSW 17.3 mph 27.6 mph 0.00 in   Overcast
11:53 AM 46.9 °F - 42.1 °F 83% 29.67 in 10.0 mi SSW 15.0 mph 23.0 mph 0.00 in   Overcast
12:02 PM 46.4 °F 40.4 °F 42.8 °F 87% 29.70 in 10.0 mi SSW 13.8 mph - N/A   Overcast
12:53 PM 48.0 °F - 42.1 °F 80% 29.63 in 10.0 mi SSW 13.8 mph 25.3 mph N/A   Overcast
1:53 PM 48.9 °F - 43.0 °F 80% 29.58 in 10.0 mi SSW 24.2 mph 31.1 mph N/A   Overcast
2:53 PM 50.0 °F - 43.0 °F 77% 29.53 in 10.0 mi SSW 18.4 mph 28.8 mph N/A   Overcast
3:53 PM 51.1 °F - 43.0 °F 74% 29.47 in 10.0 mi SSW 24.2 mph 34.5 mph N/A   Overcast
4:36 PM 51.8 °F - 44.6 °F 76% 29.49 in 10.0 mi SSW 25.3 mph 35.7 mph N/A   Overcast
4:53 PM 51.1 °F - 44.1 °F 77% 29.43 in 10.0 mi SSW 27.6 mph 42.6 mph N/A   Overcast
5:35 PM 50.0 °F - 46.4 °F 87% 29.46 in 10.0 mi SSW 21.9 mph 28.8 mph 0.00 in Rain Light Rain
5:53 PM 50.0 °F - 46.0 °F 86% 29.40 in 10.0 mi SSW 20.7 mph 33.4 mph 0.01 in Rain Light Rain
6:14 PM 50.0 °F - 44.6 °F 82% 29.42 in 10.0 mi SSW 24.2 mph 35.7 mph 0.00 in Rain Light Rain
6:53 PM 50.0 °F - 46.0 °F 86% 29.34 in 10.0 mi SSW 20.7 mph 33.4 mph 0.01 in Rain Light Rain
7:06 PM 50.0 °F - 46.4 °F 87% 29.38 in 10.0 mi SW 27.6 mph 36.8 mph 0.01 in Rain Light Rain
7:20 PM 50.0 °F - 46.4 °F 87% 29.39 in 10.0 mi SW 24.2 mph 35.7 mph 0.02 in Rain Light Rain
7:53 PM 48.9 °F - 46.9 °F 93% 29.32 in 10.0 mi SW 18.4 mph 32.2 mph 0.05 in   Overcast
8:34 PM 48.2 °F - 46.4 °F 93% 29.38 in 10.0 mi SW 15.0 mph 25.3 mph 0.01 in Rain Light Rain
8:46 PM 46.4 °F 40.4 °F 44.6 °F 93% 29.37 in 10.0 mi SSW 13.8 mph 24.2 mph 0.01 in Rain Light Rain
8:53 PM 46.9 °F - 45.0 °F 93% 29.33 in 10.0 mi SSW 12.7 mph 20.7 mph 0.01 in Rain Light Rain
9:02 PM 46.4 °F 40.4 °F 44.6 °F 93% 29.37 in 10.0 mi SSW 13.8 mph - 0.00 in Rain Light Rain
9:53 PM 46.0 °F 38.3 °F 43.0 °F 89% 29.35 in 10.0 mi SW 20.7 mph 33.4 mph 0.00 in   Overcast
10:39 PM 44.6 °F 36.6 °F 42.8 °F 93% 29.40 in 10.0 mi SW 19.6 mph 29.9 mph 0.01 in   Overcast
10:53 PM 45.0 °F 37.4 °F 43.0 °F 93% 29.37 in 10.0 mi SW 18.4 mph 27.6 mph 0.01 in   Overcast
11:14 PM 44.6 °F 38.1 °F 42.8 °F 93% 29.38 in 10.0 mi SW 13.8 mph 20.7 mph N/A   Overcast
11:37 PM 44.6 °F 38.4 °F 42.8 °F 93% 29.40 in 10.0 mi SW 12.7 mph - 0.00 in Rain Light Rain
11:53 PM 44.1 °F 36.8 °F 42.1 °F 93% 29.38 in 10.0 mi SW 16.1 mph 24.2 mph 0.00 in Rain Light Rain